Weather History for YPPD - January, 2013

Change the Weather History Date:

Tuesday, January 29, 2013

  Actual Average Record
Temperature  
Mean Temperature 89 °F -  
Max Temperature 104 °F 97 °F 104 °F (2013)
Min Temperature 74 °F 78 °F 73 °F (2015)
Cooling Degree Days 24    
Growing Degree Days 39 (Base 50)    
Moisture  
Dew Point 55 °F    
Average Humidity 38    
Maximum Humidity 80    
Minimum Humidity 5    
Precipitation  
Precipitation 0.00 in 0.13 in - ()
Sea Level Pressure  
Sea Level Pressure 29.79 in    
Wind  
Wind Speed 12 mph ()    
Max Wind Speed 26 mph    
Max Gust Speed 30 mph    
Visibility 6.4 miles    
Events Rain    
Averages and records for this station are not official NWS values.
T = Trace of Precipitation, MM = Missing Value Source: Averaged Metar Reports

Daily Weather History Graph

Daily Weather History Graph

Search for Another Location

Airport or City:

Trip Planner

Search our weather history database for the weather conditions in past years. The results will help you decide how hot, cold, wet, or windy it might be!

Date:

Astronomy

Jan. 29, 2013 Rise Set
Actual Time 5:47 AM AWST 6:49 PM AWST
Civil Twilight 5:23 AM AWST 7:13 PM AWST
Nautical Twilight 4:55 AM AWST 7:41 PM AWST
Astronomical Twilight 4:27 AM AWST 8:09 PM AWST
Moon 8:03 PM AWST (1/29) 7:22 AM AWST (1/29)
Length of Visible Light 13h 49m
Length of Day
13h 02m
Waning Gibbous, 96% of the Moon is Illuminated
Jan 29
Waning Gibbous
Feb 3
Last Quarter
Feb 10
New
Feb 18
First Quarter
Feb 26
Full

Hourly Weather History & Observations

Time (AWST) Temp. Heat Index Dew Point Humidity Pressure Visibility Wind Dir Wind Speed Gust Speed Precip Events Conditions
12:00 AM 81 °F - 53 °F 27% 29.78 in - South 12.7 mph - -  
12:00 AM 80.6 °F 80.3 °F 53.6 °F 39% 29.77 in 6.2 mi South 12.7 mph - N/A   Unknown
12:30 AM 80.6 °F - 51.8 °F 37% 29.77 in 6.2 mi SSE 10.4 mph - N/A   Unknown
1:00 AM 80.6 °F - 50.0 °F 34% 29.77 in 6.2 mi SSE 10.4 mph - N/A   Unknown
1:30 AM 80.6 °F - 50.0 °F 34% 29.77 in 6.2 mi SSE 11.5 mph - N/A   Unknown
2:00 AM 78 °F - 51 °F 28% 29.77 in - SSE 11.5 mph - -  
2:00 AM 78.8 °F - 51.8 °F 39% 29.77 in 6.2 mi SSE 11.5 mph - N/A   Unknown
2:30 AM 77.0 °F - 51.8 °F 41% 29.77 in 6.2 mi SSE 9.2 mph - N/A   Unknown
3:00 AM 77 °F - 51 °F 29% 29.78 in - SSE 9.2 mph - -  
3:00 AM 77.0 °F - 50.0 °F 39% 29.77 in 6.2 mi SSE 9.2 mph - N/A   Unknown
3:30 AM 77.0 °F - 50.0 °F 39% 29.77 in 6.2 mi South 9.2 mph - N/A   Unknown
4:00 AM 77.0 °F - 50.0 °F 39% 29.77 in 6.2 mi SSE 9.2 mph - N/A   Unknown
4:30 AM 77.0 °F - 51.8 °F 41% 29.80 in 6.2 mi SSE 9.2 mph - N/A   Unknown
5:00 AM 75 °F - 53 °F 36% 29.81 in - South 8.1 mph - -  
5:00 AM 75.2 °F - 53.6 °F 47% 29.80 in 6.2 mi South 8.1 mph - N/A   Unknown
5:30 AM 75.2 °F - 51.8 °F 44% 29.80 in 6.2 mi South 10.4 mph - N/A   Unknown
6:00 AM 76 °F - 53 °F 33% 29.83 in 19 mi SSE 9.2 mph - -   Partly Cloudy
6:00 AM 75.2 °F - 53.6 °F 47% 29.83 in - SSE 9.2 mph - N/A   Clear
6:30 AM 77.0 °F - 55.4 °F 47% 29.83 in - SSE 9.2 mph - N/A   Clear
7:00 AM 84.2 °F - 51.8 °F 33% 29.83 in - SE 9.2 mph - N/A   Clear
7:23 AM 87.8 °F - 48.2 °F 25% 29.83 in - SE 17.3 mph - N/A   Clear
7:30 AM 87.8 °F - 48.2 °F 25% 29.83 in - SE 16.1 mph - N/A   Clear
7:39 AM 89.6 °F - 46.4 °F 22% 29.83 in - SE 18.4 mph 29.9 mph N/A   Clear
8:00 AM 91 °F - 47 °F 13% 29.86 in - ESE 18.4 mph - -  
8:00 AM 91.4 °F - 46.4 °F 21% 29.86 in 6.2 mi ESE 18.4 mph - N/A   Unknown
8:30 AM 93.2 °F - 44.6 °F 19% 29.86 in - ESE 21.9 mph - N/A   Clear
9:00 AM 94 °F - 44 °F 10% 29.86 in 19 mi ESE 26.5 mph - -   Partly Cloudy
9:00 AM 93.2 °F - 44.6 °F 19% 29.86 in - ESE 26.5 mph - N/A   Clear
9:30 AM 95.0 °F - 46.4 °F 19% 29.86 in - ESE 21.9 mph - N/A   Clear
10:00 AM 96.8 °F - 44.6 °F 17% 29.83 in - ESE 23.0 mph - N/A   Clear
10:30 AM 96.8 °F - 44.6 °F 17% 29.83 in - ESE 20.7 mph - N/A   Clear
11:00 AM 99 °F - 43 °F 8% 29.83 in - ESE 20.7 mph - -  
11:00 AM 98.6 °F - 42.8 °F 15% 29.83 in - ESE 20.7 mph - N/A   Clear
11:30 AM 100.4 °F - 46.4 °F 16% 29.83 in 6.2 mi ESE 20.7 mph - N/A   Unknown
12:00 PM 101 °F - 44 °F 8% 29.81 in 19 mi ESE 19.6 mph - -   Partly Cloudy
12:00 PM 100.4 °F - 44.6 °F 15% 29.80 in - ESE 19.6 mph - N/A   Clear
12:30 PM 102.2 °F - 44.6 °F 14% 29.80 in - East 18.4 mph - N/A   Clear
1:00 PM 102.2 °F 104.2 °F 62.6 °F 27% 29.77 in - East 17.3 mph - N/A   Clear
1:30 PM 102.2 °F 170.2 °F 95.0 °F 80% 29.77 in - East 10.4 mph - N/A   Clear
2:00 PM 103 °F - 36 °F 5% 29.76 in - SSE 15.0 mph - -  
2:00 PM 102.2 °F - 37.4 °F 11% 29.74 in 6.2 mi SSE 15.0 mph - N/A   Unknown
2:30 PM 104.0 °F - 39.2 °F 11% 29.74 in - SSE 16.1 mph - N/A   Clear
3:00 PM 104 °F - 38 °F 5% 29.75 in 19 mi SSE 17.3 mph - -   Partly Cloudy
3:00 PM 104.0 °F - 39.2 °F 11% 29.74 in - SSE 17.3 mph - N/A   Clear
3:30 PM 104.0 °F - 39.2 °F 11% 29.74 in 6.2 mi ESE 12.7 mph - N/A   Unknown
4:02 PM 100.4 °F 98.4 °F 53.6 °F 21% 29.74 in 6.2 mi NNW 19.6 mph - N/A   Unknown
4:03 PM 100.4 °F 98.4 °F 53.6 °F 21% 29.74 in 6.2 mi NNW 17.3 mph 28.8 mph N/A   Unknown
4:30 PM 98.6 °F 97.2 °F 55.4 °F 24% 29.74 in 6.2 mi North 15.0 mph - N/A   Unknown
5:00 PM 98 °F - 51 °F 12% 29.74 in - North 12.7 mph - -  
5:00 PM 98.6 °F - 51.8 °F 21% 29.74 in 6.2 mi North 12.7 mph - N/A   Unknown
5:30 PM 96.8 °F 95.1 °F 55.4 °F 25% 29.74 in 6.2 mi North 10.4 mph - N/A   Unknown
6:00 PM 95 °F - 59 °F 21% 29.75 in - North 6.9 mph - -  
6:00 PM 95.0 °F 94.4 °F 59.0 °F 30% 29.74 in 6.2 mi North 6.9 mph - N/A   Unknown
6:25 PM 93.2 °F 94.9 °F 64.4 °F 38% 29.74 in 3.1 mi NNW 8.1 mph - N/A   Unknown
6:30 PM 91.4 °F 93.2 °F 64.4 °F 41% 29.74 in - NNW 8.1 mph - N/A   Unknown
7:00 PM 87.8 °F 90.4 °F 66.2 °F 49% 29.77 in 6.2 mi NNW 6.9 mph - N/A   Unknown
7:08 PM 87.8 °F 90.4 °F 66.2 °F 49% 29.77 in 3.1 mi NW 5.8 mph - N/A   Unknown
7:30 PM 84.2 °F 87.3 °F 68.0 °F 58% 29.77 in 0.9 mi West 9.2 mph - N/A Rain Light Rain Showers
7:57 PM 84.2 °F 88.4 °F 69.8 °F 62% 29.77 in 6.2 mi West 8.1 mph - N/A   Unknown
8:00 PM 84 °F - 70 °F 54% 29.79 in - West 6.9 mph - -  
8:03 PM 84.2 °F 88.4 °F 69.8 °F 62% 29.77 in 3.7 mi West 5.8 mph - N/A   Unknown
8:19 PM 82.4 °F 86.3 °F 69.8 °F 66% 29.77 in 6.2 mi West 8.1 mph - N/A Rain Light Rain Showers
8:24 PM 82.4 °F 86.3 °F 69.8 °F 66% 29.77 in 3.7 mi West 9.2 mph - N/A   Unknown
8:30 PM 82.4 °F 86.3 °F 69.8 °F 66% 29.80 in 3.7 mi West 9.2 mph - N/A Rain Light Rain Showers
9:00 PM 82 °F - 72 °F 65% 29.80 in 4 mi West 9.2 mph - -  
9:00 PM 82.4 °F 87.2 °F 71.6 °F 70% 29.80 in 3.7 mi West 9.2 mph - N/A Rain Light Rain Showers
9:20 PM 80.6 °F 84.6 °F 71.6 °F 74% 29.80 in 5.0 mi WSW 10.4 mph - N/A Rain Light Rain Showers
9:28 PM 80.6 °F 84.6 °F 71.6 °F 74% 29.80 in 3.7 mi WSW 10.4 mph - N/A Rain Light Rain Showers
9:30 PM 80.6 °F 84.6 °F 71.6 °F 74% 29.80 in 3.1 mi WSW 10.4 mph - N/A Rain Light Rain Showers
9:53 PM 80.6 °F 83.9 °F 69.8 °F 70% 29.80 in 6.2 mi WSW 10.4 mph - N/A Rain Light Rain Showers
10:00 PM 80.6 °F 83.9 °F 69.8 °F 70% 29.80 in 6.2 mi WSW 10.4 mph - N/A   Unknown
10:13 PM 80.6 °F 83.9 °F 69.8 °F 70% 29.80 in 3.7 mi WSW 10.4 mph - N/A Rain Light Rain Showers
10:30 PM 80.6 °F 83.2 °F 68.0 °F 65% 29.80 in 3.7 mi WSW 10.4 mph - N/A Rain Light Rain Showers
11:00 PM 80 °F - 69 °F 62% 29.80 in - WSW 9.2 mph - -  
11:00 PM 80.6 °F 83.9 °F 69.8 °F 70% 29.80 in 6.2 mi WSW 9.2 mph - N/A Rain Light Rain Showers
11:06 PM 78.8 °F - 69.8 °F 74% 29.80 in 3.7 mi WSW 8.1 mph - N/A   Unknown
11:22 PM 78.8 °F - 69.8 °F 74% 29.80 in 4.3 mi WSW 8.1 mph - N/A   Unknown
11:34 PM 78.8 °F - 69.8 °F 74% 29.80 in 3.7 mi WSW 9.2 mph - N/A   Unknown